Location: Maiden
(35.5760°N, 81.2120°W)
Time: 01:56:58
(UTC-04:00)

A-11 Canister half - Pass Details

Date: 10 August 2020
Orbit: 1527 x 1682 km, 47.3° (Epoch: 25 September)

Event Time Altitude Azimuth Distance (km) Brightness Sun altitude
Rises 14:44:36 0° 266° (W) 4,918 11.9 63.7°
Reaches altitude 10° 14:47:58 10° 272° (W) 3,939 11.6 63.2°
Maximum altitude 14:57:41 48° 345° (NNW) 2,098 10.3 61.8°
Drops below altitude 10° 15:07:21 10° 58° (ENE) 3,914 10.9 60.2°
Sets 15:10:41 0° 65° (ENE) 4,886 11.3 59.7°
